sat.trackr.live / text

‹ back to catalog

STARLINK-34560

NORAD 64700 · 2025-142E

PAYLOAD ACTIVE UNKNOWN

§ Identity

Operator
Country
US
Launch date
2025-06-28
Launch site
AFWTR
Launch vehicle
Mass (kg)
RCS (m²)

Purposes: comms

External: N2YO · Heavens-Above · Gunter

§ Orbital elements

Epoch: 2026-05-25T04:18:21.892320Z

Period
96.11 min
Inclination
70.0003°
Eccentricity
0.0003974
Mean motion
14.98335296 rev/d
Perigee alt
569.3 km
Apogee alt
574.8 km
Semi-major
6,950.2 km
B*
3.8259e-4
RAAN
121.7520°
Arg perigee
266.6031°
Mean anomaly
93.4673°
Rev number
5,089

§ Raw data

STARLINK-345601 64700U 25142E   26145.17942005  .00004476  00000+0  38259-3 0  99972 64700  70.0003 121.7520 0003974 266.6031  93.4673 14.98335296 50898

JSON: /api/v1/satellites/64700 · /tle

For live sub-satellite position, see the globe view (requires WebGL).

§ Visibility from observer

Set your observer location to see the next 7 days of passes ≥ 10°. The values pass through the URL so the page stays shareable.

No JS? Fill the form by hand. The geolocation button needs JavaScript.